Back to catalog

STARLINK-6154

AliveCommunicationsVLEO
NORAD 57123·PAYLOAD·🇺🇸 United States

Launched Jun 23, 2023 from Cape Canaveral Space Force Station

Loading…

Next Passes (next 24 hours)

TLE

FreshSource: CelesTrak SupGP

Epoch: Sep 14, 2026, 14:36 UTC

1 57123C 23090Y   26257.60881944  .00045962  00000+0  16642-2 0  2577
2 57123  43.0005 294.6527 0001453 273.7348 133.3144 15.27566641    17

Track STARLINK-6154 in real time with AllMySat

Download on the App Store